Location: Unspecified
(64.9000°N, 0.0000°E)
Time: 21:33:59
(UTC+00:00)

A-11 Canister half - Pass Details

Date: 18 June 2019
Orbit: 1527 x 1682 km, 47.3° (Epoch: 22 October)

Event Time Altitude Azimuth Distance (km) Brightness Sun altitude
Rises 10:22:16 0° 262° (W) 4,684 11.4 45.5°
Reaches altitude 10° 10:26:12 10° 248° (WSW) 3,698 11.0 45.7°
Maximum altitude 10:32:36 21° 204° (SSW) 2,907 11.2 46.1°
Drops below altitude 10° 10:39:03 10° 159° (SSE) 3,723 12.0 46.4°
Sets 10:43:03 0° 145° (SE) 4,724 12.3 46.6°
